• MPC Preparation (Info)

  • MPEC 2023-N29 : 2023 NF

    The following Minor Planet Electronic Circular may be linked-to from your own Web pages, but must not otherwise be redistributed electronically.

    A form allowing access to any MPEC is at the bottom of this page.


    Read MPEC 2023-N28 Read MPEC 2023-N30


    M.P.E.C. 2023-N29                                  Issued 2023 July 9, 00:35 UT
    
         The Minor Planet Electronic Circulars contain information on unusual
             minor planets, routine data on comets and natural satellites,
             and occasional editorial announcements.  They are published
        on behalf of Division F of the International Astronomical Union by the
              Minor Planet Center, Smithsonian Astrophysical Observatory,
                              Cambridge, MA 02138, U.S.A.
    			  
                 Prepared using the Tamkin Foundation Computer Network
    
                                  MPC@CFA.HARVARD.EDU
                URL https://www.minorplanetcenter.net/    ISSN 1523-6714
    
                                     2023 NF                                 
    
    
    Observations:
         K23N00F 1C2023 06 25.24901 17 01 52.06 -01 06 20.7                VEN029G96
         K23N00F 1C2023 06 25.25425 17 01 51.52 -01 06 12.8          21.4 GVEN029G96
         K23N00F 1C2023 06 25.25948 17 01 50.92 -01 06 04.3                VEN029G96
         K23N00F* C2023 07 06.28341416 44 02.965+03 12 08.70         21.34wXEN029F52
         K23N00F  C2023 07 06.29556316 44 01.838+03 12 24.22         21.37wXEN029F52
         K23N00F  C2023 07 06.32009116 43 59.537+03 12 56.26         21.29wXEN029F52
         K23N00F  C2023 07 06.38115716 43 53.823+03 14 15.42         20.79GVEN029F51
         K23N00F  C2023 07 06.38197316 43 53.744+03 14 16.46         21.12GVEN029F51
         K23N00F KC2023 07 07.18183316 42 42.960+03 31 24.30               VEN029I52
         K23N00F KC2023 07 07.18569416 42 42.560+03 31 29.40               VEN029I52
         K23N00F 1C2023 07 07.89816 16 41 40.09 +03 46 32.2          21.5 VXEN029033
         K23N00F 1C2023 07 07.90065 16 41 39.86 +03 46 35.6          21.1 VXEN029033
         K23N00F 1C2023 07 07.90313 16 41 39.64 +03 46 38.7          21.1 VXEN029033
         K23N00F KB2023 07 07.93073 16 41 37.14 +03 47 14.8          20.0 RZEN029106
         K23N00F KB2023 07 07.93949 16 41 36.40 +03 47 25.0          19.6 RZEN029106
         K23N00F KB2023 07 07.94825 16 41 35.60 +03 47 35.5                ZEN029106
         K23N00F pC2023 07 07.94903716 41 35.43 +03 47 36.6          20.9 GVEN029L01
         K23N00F pC2023 07 07.95156116 41 35.24 +03 47 39.8          21.0 GVEN029L01
         K23N00F pC2023 07 07.95408516 41 35.04 +03 47 43.2          21.3 GVEN029L01
         K23N00F KB2023 07 07.95716 16 41 34.80 +03 47 47.5          19.7 RZEN029106
         K23N00F KC2023 07 08.20950 16 41 13.21 +03 53 06.8                oEN029291
         K23N00F  C2023 07 08.21984916 41 12.371+03 53 19.23         21.0 GVEN029654
         K23N00F KC2023 07 08.21998 16 41 12.30 +03 53 19.9          21.3 RoEN029291
         K23N00F  C2023 07 08.22452716 41 11.954+03 53 25.15         21.0 GVEN029654
         K23N00F  C2023 07 08.26365316 41 08.423+03 54 13.95         20.9 GVEN029654
         K23N00F  C2023 07 08.27167216 41 07.738+03 54 24.21         20.9 GVEN029654
         K23N00F KC2023 07 08.28262416 41 06.637+03 54 38.02         21.19GVEN029I52
         K23N00F KC2023 07 08.28619716 41 06.356+03 54 42.08         20.45GVEN029I52
         K23N00F KC2023 07 08.28982716 41 06.036+03 54 46.58         20.83GVEN029I52
         K23N00F KC2023 07 08.90518416 40 13.60 +04 07 31.8          20.6 GVEN029L06
         K23N00F KC2023 07 08.91045616 40 13.13 +04 07 38.4          20.9 GVEN029L06
         K23N00F KC2023 07 08.91530416 40 12.72 +04 07 44.3          20.4 GVEN029L06
    
    Observer details:
    033 Karl Schwarzschild Observatory, Tautenburg.  Observers S. Melnikov, C.
        Hoegner, F. Ludwig, B. Stecklum.  Measurer B. Stecklum.  1.34-m f/3
        Schmidt + CCD.
    106 Crni Vrh.  Observer H. Mikuz.  0.60-m f/3.3 reflector + CMO.
    291 LPL/Spacewatch II.  Observer R. A. Mastaler.  1.8-m f/2.7 reflector + CCD.
    654 Table Mountain Observatory, Wrightwood-PHMC.  Observers N. Evans, P. Choi,
        N. Saini, C. Zhai, R. Trahan, M. Shao.  1.0-m Reflector + CCD.
    F51 Pan-STARRS 1, Haleakala.  Observers J. Bulger, K. Chambers, T. Lowe, P.
        Minguez, A. Schultz, I. Smith.  Measurers S. Chastel, J. Fairlamb, M.
        Huber, Y. Ramanjooloo, R. Wainscoat, R. Weryk.  1.8-m Ritchey-Chretien +
        CCD.
    F52 Pan-STARRS 2, Haleakala.  Observers J. Bulger, T. Lowe, P. Minguez, A.
        Schultz, I. Smith.  Measurers K. Chambers, T. de Boer, J. Bulger, J.
        Fairlamb, H. Gao, M. Huber, C.-C. Lin, T. Lowe, E. Magnier, P. Minguez, Y.
        Ramanjooloo, A. Schultz, I. Smith, R. Wainscoat, R. Weryk.  1.8-m Ritchey-
        Chretien + CCD.
    G96 Mt. Lemmon Survey.  Observer J. B. Fazekas.  Measurers B. Gray, D. Rankin,
        F. C. Shelly.  1.5-m reflector + 10K CCD.
    I52 Steward Observatory, Mt. Lemmon Station.  Observers K. W. Wierzchos, A.
        Serrano.  Measurers E. J. Christensen, D. Fay, J. B. Fazekas, D. C. Fuls,
        A. R. Gibbs, A. D. Grauer, H. Groeller, J. K. Hogan, R. A. Kowalski, S. M.
        Larson, G. J. Leonard, D. Rankin, R. L. Seaman, A. Serrano, F. C. Shelly,
        K. W. Wierzchos.  1.0-m prime focus + CCD.
    L01 Visnjan Observatory, Tican.  Observers K. Korlevic, L. Poropat.  Measurer
        K. Korlevic.  1.0-m f/2.9 reflector + CCD.
    L06 Sormano 2 Observatory, Bellagio Via Lattea.  Observer G. Ventre.  Measurer
        P. Sicoli.  0.36m Schmidt Cassegrain + CCD.
    
    Orbital elements:
    2023 NF                                                  Earth MOID = 0.1988 AU
    Epoch 2023 Feb. 25.0 TT = JDT 2460000.5                 Veres                   
    M 294.31702              (2000.0)            P               Q                  
    n   0.25991697     Peri.  122.27392     +0.89820061     -0.08134435             
    a   2.4317166      Node   245.74283     +0.00664239     +0.98512887             
    e   0.5761934      Incl.   28.28306     +0.43953561     +0.15134138             
    P   3.79           H   19.19          G   0.15           U   9                  
    Residuals in seconds of arc
    230625 G96  0.1+  0.5-    230707 033  0.1-  0.4+    230708 291  0.1-  0.0
    230625 G96  0.3+  0.4-    230707 033  0.0   0.4+    230708 654  0.2+  0.2+
    230625 G96  0.5-  0.3+    230707 106  0.0   1.0+    230708 654  0.1-  0.1-
    230706 F52  0.1-  0.4+    230707 106  0.7+  0.2+    230708 654  0.4+  0.1+
    230706 F52  0.1+  0.1+    230707 106  0.4+  0.3-    230708 I52  0.3-  0.1-
    230706 F52  0.0   0.3+    230707 L01  1.0-  0.3-    230708 I52  0.2+  0.5-
    230706 F51  0.1+  0.2+    230707 L01  0.5-  0.3-    230708 I52  0.3+  0.5-
    230706 F51  0.1+  0.2+    230707 L01  0.1-  0.1-    230708 L06  0.0   0.4+
    230707 I52  0.2+  0.3-    230707 106  0.4+  0.5+    230708 L06  0.1-  0.5+
    230707 I52  0.5-  0.2-    230708 291  0.6-  0.1+    230708 L06  0.2+  0.4+
    230707 033  0.0   0.2+    230708 654  0.1+  0.1+
    
    Ephemeris:
    2023 NF                  a,e,i = 2.43, 0.58, 28                  q = 1.0306
    Date    TT    R. A. (2000) Decl.     Delta      r    Elong.  Phase     V
    2023 06 09    17 28 39.9 -07 56 24   0.9470  1.9432   164.1     8.2    21.1
    ...
    2023 06 24    17 03 59.4 -01 37 24   0.8646  1.8300   153.2    14.5    21.0
    ...
    2023 07 02    16 50 41.4 +01 36 08   0.8454  1.7687   143.4    20.0    21.1
    ...
    2023 07 08    16 41 31.4 +03 48 47   0.8404  1.7224   135.9    24.3    21.1
    2023 07 09    16 40 05.7 +04 09 35   0.8402  1.7147   134.6    25.0    21.1
    2023 07 10    16 38 42.0 +04 29 58   0.8402  1.7069   133.4    25.6    21.1
    ...
    2023 07 16    16 31 06.4 +06 23 17   0.8434  1.6603   126.2    29.6    21.2
    ...
    2023 07 24    16 23 22.5 +08 29 50   0.8541  1.5981   117.2    34.4    21.3
    ...
    2023 08 08    16 17 06.9 +11 19 07   0.8818  1.4821   102.6    41.9    21.4
    
    M. P. C. Staff               (C) Copyright 2023 MPC           M.P.E.C. 2023-N29
    


    Read MPEC 2023-N28 Read MPEC 2023-N30


    MPEC number:

    Enter an MPEC number in one of the following forms:

    • 1997-B01 (the full form)
    • J97B01 (the packed version of the full form)
    • B01 (the abbreviated form)